Total_Precipitation_Accumulation
0.07 0.10 0.09 0.06 0.07 0.09 0.13 0.14 0.20 0.20 0.05 0.02 0.01 0.01 0.00 0.00 0.00 0.00 0.00 0.00 0.00 0.00 0.00 0.00 0.00 0.00 0.00 0.00 0.00 0.01 0.01 0.00 0.00 0.00 0.00 0.00 0.00 0.00 0.00 0.00 0.00 0.01 0.00 0.00 0.01
0.11 0.12 0.15 0.14 0.14 0.20 0.26 0.27 0.18 0.16 0.07 0.01 0.01 0.00 0.00 0.00 0.00 0.00 0.00 0.00 0.00 0.03 0.04 0.01 0.00 0.00 0.00 0.00 0.00 0.00 0.00 0.00 0.00 0.00 0.00 0.00 0.00 0.00 0.00 0.00 0.00 0.01 0.00 0.00 0.03
0.14 0.15 0.15 0.15 0.12 0.12 0.15 0.20 0.25 0.26 0.08 0.01 0.01 0.00 0.00 0.00 0.00 0.00 0.00 0.01 0.02 0.03 0.02 0.01 0.00 0.00 0.00 0.00 0.00 0.00 0.00 0.00 0.00 0.00 0.00 0.00 0.00 0.00 0.01 0.01 0.00 0.00 0.00 0.01 0.08
0.17 0.16 0.17 0.15 0.14 0.12 0.11 0.11 0.16 0.26 0.25 0.08 0.02 0.00 0.00 0.00 0.00 0.00 0.00 0.00 0.00 0.00 0.01 0.00 0.00 0.00 0.00 0.00 0.00 0.00 0.00 0.00 0.00 0.00 0.00 0.00 0.01 0.00 0.01 0.00 0.00 0.00 0.00 0.00 0.06
0.16 0.18 0.18 0.15 0.12 0.10 0.13 0.16 0.17 0.19 0.27 0.13 0.05 0.00 0.00 0.00 0.00 0.00 0.00 0.00 0.00 0.00 0.00 0.00 0.00 0.00 0.00 0.00 0.00 0.00 0.00 0.00 0.00 0.00 0.00 0.00 0.01 0.01 0.00 0.00 0.00 0.00 0.00 0.00 0.01
0.15 0.20 0.23 0.19 0.13 0.08 0.07 0.07 0.12 0.20 0.22 0.12 0.04 0.02 0.00 0.00 0.00 0.00 0.00 0.00 0.00 0.00 0.00 0.00 0.00 0.00 0.01 0.00 0.00 0.00 0.00 0.00 0.00 0.00 0.00 0.01 0.00 0.01 0.00 0.01 0.01 0.03 0.00 0.00 0.00
0.17 0.30 0.27 0.23 0.27 0.32 0.21 0.16 0.10 0.12 0.25 0.20 0.02 0.00 0.01 0.00 0.00 0.00 0.00 0.00 0.00 0.00 0.00 0.00 0.00 0.00 0.00 0.00 0.00 0.00 0.01 0.00 0.00 0.00 0.00 0.02 0.02 0.00 0.00 0.00 0.01 0.03 0.00 0.00 0.00
0.17 0.37 0.36 0.33 0.25 0.36 0.43 0.68 0.49 0.33 0.38 0.25 0.06 0.01 0.00 0.00 0.00 0.00 0.00 0.00 0.00 0.00 0.00 0.00 0.02 0.02 0.02 0.02 0.01 0.01 0.01 0.00 0.00 0.00 0.00 0.04 0.02 0.00 0.00 0.00 0.00 0.01 0.00 0.00 0.00
0.13 0.24 0.26 0.27 0.22 0.21 0.32 0.60 0.51 0.54 0.66 0.29 0.05 0.03 0.01 0.00 0.00 0.00 0.00 0.00 0.00 0.00 0.00 0.00 0.01 0.01 0.04 0.05 0.03 0.01 0.02 0.00 0.00 0.00 0.01 0.06 0.02 0.00 0.00 0.00 0.00 0.01 0.00 0.00 0.00
0.10 0.12 0.17 0.24 0.25 0.31 0.38 0.59 0.59 0.50 0.52 0.04 0.01 0.01 0.00 0.00 0.00 0.00 0.00 0.00 0.00 0.00 0.00 0.00 0.00 0.02 0.03 0.06 0.04 0.01 0.04 0.02 0.02 0.03 0.10 0.12 0.04 0.02 0.01 0.01 0.01 0.00 0.01 0.00 0.00
0.13 0.16 0.14 0.19 0.22 0.33 0.36 0.35 0.44 0.28 0.41 0.12 0.03 0.00 0.00 0.00 0.00 0.00 0.00 0.00 0.00 0.00 0.01 0.02 0.03 0.02 0.01 0.02 0.01 0.02 0.03 0.01 0.00 0.00 0.03 0.04 0.03 0.03 0.04 0.05 0.01 0.02 0.03 0.01 0.00
0.14 0.15 0.14 0.23 0.32 0.38 0.31 0.17 0.22 0.19 0.29 0.09 0.01 0.00 0.00 0.00 0.00 0.00 0.00 0.00 0.00 0.00 0.01 0.02 0.02 0.00 0.00 0.00 0.00 0.01 0.03 0.01 0.01 0.01 0.04 0.01 0.00 0.00 0.03 0.02 0.06 0.06 0.05 0.01 0.00
0.25 0.51 0.90 0.40 0.40 0.36 0.30 0.30 0.09 0.06 0.10 0.06 0.00 0.00 0.00 0.00 0.00 0.00 0.00 0.00 0.00 0.00 0.00 0.01 0.00 0.00 0.00 0.00 0.01 0.02 0.05 0.02 0.03 0.07 0.08 0.03 0.05 0.05 0.01 0.00 0.06 0.13 0.05 0.01 0.01
0.42 0.91 1.81 0.63 0.38 0.22 0.32 0.33 0.12 0.02 0.03 0.05 0.01 0.00 0.00 0.00 0.00 0.00 0.00 0.00 0.00 0.00 0.00 0.00 0.00 0.00 0.00 0.01 0.17 0.18 0.10 0.16 0.18 0.66 0.34 0.09 0.27 0.21 0.02 0.01 0.01 0.03 0.04 0.05 0.05
0.21 0.51 0.81 0.56 0.24 0.32 0.22 0.20 0.07 0.05 0.11 0.04 0.01 0.00 0.00 0.00 0.00 0.00 0.00 0.00 0.00 0.00 0.00 0.00 0.00 0.00 0.00 0.04 0.27 0.22 0.26 0.19 0.34 0.80 0.58 0.14 0.66 0.35 0.05 0.01 0.02 0.02 0.04 0.07 0.03
0.32 0.38 0.38 0.46 0.12 0.18 0.12 0.06 0.03 0.14 0.20 0.13 0.03 0.02 0.00 0.00 0.00 0.00 0.00 0.00 0.00 0.00 0.00 0.00 0.00 0.00 0.01 0.01 0.11 0.09 0.24 0.30 0.62 0.95 0.55 0.16 0.46 0.69 0.34 0.14 0.13 0.07 0.11 0.18 0.10
0.17 0.45 0.42 0.25 0.14 0.02 0.01 0.01 0.06 0.20 0.17 0.07 0.05 0.01 0.00 0.00 0.00 0.00 0.00 0.00 0.00 0.00 0.00 0.00 0.00 0.00 0.02 0.03 0.01 0.03 0.30 0.45 0.61 0.49 0.48 0.56 0.64 0.47 0.44 0.45 0.48 0.20 0.25 0.31 0.14
0.27 0.37 0.40 0.17 0.02 0.00 0.00 0.01 0.06 0.08 0.02 0.02 0.00 0.00 0.00 0.00 0.00 0.00 0.00 0.00 0.00 0.00 0.01 0.01 0.05 0.05 0.10 0.13 0.05 0.06 0.35 0.47 0.44 0.48 0.36 0.31 0.44 0.63 0.64 0.52 0.49 0.24 0.42 0.34 0.17
0.44 0.13 0.16 0.12 0.01 0.00 0.00 0.02 0.03 0.00 0.01 0.00 0.00 0.00 0.00 0.00 0.00 0.00 0.00 0.00 0.00 0.00 0.03 0.04 0.02 0.03 0.14 0.12 0.14 0.10 0.30 0.33 0.38 0.22 0.29 0.37 0.33 0.52 0.76 0.86 0.65 0.42 0.50 0.45 0.16
0.47 0.17 0.15 0.09 0.03 0.00 0.00 0.01 0.00 0.00 0.00 0.00 0.00 0.00 0.00 0.00 0.00 0.00 0.00 0.00 0.01 0.00 0.01 0.03 0.07 0.05 0.07 0.10 0.14 0.22 0.26 0.23 0.35 0.36 0.41 0.27 0.38 0.97 0.85 0.98 0.92 0.61 0.66 0.49 0.17
0.36 0.26 0.14 0.03 0.01 0.00 0.00 0.00 0.00 0.00 0.00 0.00 0.00 0.00 0.00 0.00 0.00 0.00 0.00 0.00 0.00 0.00 0.01 0.04 0.15 0.12 0.11 0.25 0.29 0.16 0.12 0.06 0.08 0.08 0.23 0.23 0.79 1.26 1.19 1.28 1.09 0.90 0.88 0.92 0.43
0.23 0.32 0.14 0.02 0.03 0.01 0.00 0.00 0.00 0.00 0.00 0.00 0.00 0.00 0.00 0.00 0.00 0.00 0.00 0.00 0.00 0.00 0.01 0.03 0.09 0.09 0.07 0.02 0.01 0.01 0.04 0.03 0.06 0.05 0.06 0.21 0.73 0.65 0.99 1.41 1.35 1.06 1.21 1.46 0.73
0.18 0.29 0.21 0.04 0.02 0.00 0.00 0.00 0.00 0.00 0.00 0.00 0.00 0.00 0.00 0.00 0.00 0.00 0.00 0.00 0.00 0.00 0.02 0.01 0.03 0.04 0.04 0.03 0.01 0.00 0.00 0.01 0.01 0.01 0.04 0.26 0.73 0.40 0.50 0.80 1.53 1.48 1.38 1.33 1.24
0.10 0.22 0.21 0.08 0.00 0.00 0.00 0.00 0.00 0.00 0.00 0.00 0.00 0.00 0.00 0.00 0.00 0.00 0.00 0.00 0.00 0.00 0.00 0.00 0.01 0.03 0.14 0.20 0.05 0.03 0.00 0.00 0.00 0.02 0.08 0.45 0.37 0.17 0.22 0.62 1.28 1.41 1.49 1.55 1.54
0.04 0.02 0.04 0.03 0.01 0.00 0.00 0.00 0.00 0.00 0.00 0.00 0.00 0.00 0.00 0.00 0.00 0.00 0.00 0.00 0.00 0.00 0.00 0.00 0.01 0.01 0.01 0.01 0.00 0.00 0.00 0.00 0.00 0.00 0.08 0.17 0.12 0.11 0.24 0.74 1.30 1.60 1.77 1.70 1.95
0.01 0.01 0.01 0.00 0.00 0.00 0.00 0.00 0.00 0.00 0.00 0.00 0.00 0.00 0.00 0.00 0.00 0.00 0.00 0.00 0.00 0.00 0.00 0.00 0.00 0.00 0.00 0.00 0.00 0.00 0.00 0.00 0.01 0.02 0.01 0.01 0.02 0.02 0.16 0.40 0.84 1.34 1.58 2.02 2.51
0.00 0.00 0.00 0.00 0.00 0.00 0.00 0.00 0.00 0.00 0.00 0.00 0.00 0.00 0.00 0.00 0.00 0.00 0.00 0.00 0.00 0.00 0.00 0.00 0.00 0.00 0.00 0.00 0.00 0.00 0.00 0.00 0.01 0.01 0.00 0.01 0.01 0.01 0.05 0.22 0.42 0.78 1.00 1.11 1.15